CAPE
0 0 0 0 0 0 0 0 0 0 0 0 0 0 0 507 1539 1905 2363 2997 2824 2983 2687 2383 2443 2197 1651 2033 1542 1632 1760 1283 1337 1059 591 736 723 834 536 297 145 17 3
2 0 0 0 0 0 0 0 0 0 0 0 0 0 3 18 663 1683 2160 2644 2607 2678 2183 2308 2283 2157 1791 2059 1542 1828 1270 1217 975 892 741 339 141 175 389 206 53 30 8
0 0 0 0 0 0 0 0 0 0 0 0 1 0 0 17 218 1840 1971 2256 2785 2723 2176 2345 2381 2012 1849 1734 1505 1415 1046 932 810 816 495 388 144 51 127 229 139 51 10
0 0 0 0 0 0 0 0 0 0 0 0 0 0 6 0 14 1043 1675 2158 2448 2248 2326 2493 2120 1780 1810 1652 1509 1380 1224 1240 691 709 714 763 443 218 12 17 166 106 51
0 0 0 0 0 0 0 0 0 0 0 0 0 0 0 12 125 535 1823 2330 2565 2300 2347 2437 1943 1610 1694 1491 1311 1237 1359 1450 985 641 441 919 658 394 250 7 16 59 95
0 0 0 0 0 0 0 0 0 0 0 0 0 0 0 0 34 617 1616 2261 2636 2138 2064 1929 1732 1588 1802 1397 1280 1427 1672 1675 1362 1139 879 773 443 246 337 322 100 34 66
0 0 0 0 0 0 0 0 0 0 0 0 3 0 0 0 0 253 1206 2242 2406 1923 1646 1641 1692 1633 1459 722 244 573 1215 1555 1399 1205 1086 533 900 531 332 407 281 12 5
0 0 0 0 0 0 0 0 0 0 0 0 0 7 8 1 0 176 1176 1856 2225 2021 1443 1597 1856 1377 1273 912 1103 1442 1557 1340 1147 1195 1163 875 702 562 353 267 312 53 0
0 0 0 0 0 0 0 0 0 0 0 0 2 192 261 368 303 1174 1749 2109 2270 1928 1506 1493 1377 1514 1512 1086 1094 815 981 1220 1430 1617 971 580 290 344 236 219 71 40 17
0 0 0 0 0 0 0 0 0 0 0 2 3 456 522 737 1039 1487 1833 1959 2141 2040 1868 1648 1275 1148 812 970 875 435 762 993 1477 1471 1198 773 413 275 154 128 53 66 13
0 0 0 0 0 0 0 0 0 0 0 1 9 352 553 515 555 1130 1259 1676 1922 1723 1481 1340 1168 792 706 276 256 436 269 661 930 589 451 305 291 381 233 92 227 31 25
0 0 0 0 0 0 0 0 0 0 0 0 5 28 110 378 526 546 750 1316 1504 1409 1167 904 1023 858 626 600 130 64 205 431 606 513 334 200 236 329 238 224 22 21 185
0 0 0 0 0 0 0 0 0 0 0 0 22 27 53 92 264 439 590 692 989 904 808 849 815 862 729 633 392 46 21 359 635 552 327 155 260 140 142 165 61 109 95
0 0 0 0 0 0 0 0 0 0 0 0 0 0 24 92 191 214 259 418 514 498 553 583 622 454 482 573 651 334 253 294 371 394 330 295 164 85 108 30 33 55 46
0 0 0 0 0 0 0 0 0 0 0 0 0 0 0 0 0 14 12 123 171 100 211 376 418 193 217 244 179 157 112 98 121 89 90 97 108 45 51 37 26 29 35
0 0 0 0 0 0 0 0 0 0 0 0 1 0 1 0 0 0 1 0 56 25 29 119 107 207 75 61 37 37 208 132 40 22 33 188 5 15 12 6 5 10 4
0 0 0 0 0 0 0 0 0 0 0 0 0 0 0 0 0 0 0 0 0 10 49 71 98 33 31 63 65 41 18 38 54 57 39 40 68 15 7 14 1 2 4
0 0 0 0 0 0 0 0 0 0 0 0 0 0 3 0 0 0 0 0 0 0 23 17 57 93 45 39 28 18 3 20 83 16 32 5 12 12 4 0 0 4 2
0 0 0 0 0 0 0 0 0 0 0 0 0 0 0 0 0 0 0 0 0 0 0 0 13 46 12 4 9 30 10 19 15 39 24 25 25 8 1 2 0 0 0
0 0 0 0 0 0 0 0 0 0 0 0 0 0 0 0 0 0 0 0 0 0 0 0 0 0 0 0 0 0 28 30 21 11 8 3 9 5 14 4 1 0 0
0 0 0 0 0 0 0 0 0 0 0 0 0 0 0 0 0 0 0 0 0 0 0 0 0 0 0 5 0 0 14 25 21 12 6 8 19 5 14 17 5 1 1
0 0 0 0 0 0 0 0 0 0 0 0 0 0 0 0 0 0 0 0 0 0 0 0 0 0 0 0 0 1 0 6 9 4 6 9 19 14 9 11 4 15 9
0 0 0 0 0 0 0 0 0 0 0 0 0 0 0 0 0 0 0 0 0 0 0 0 0 0 0 0 0 0 0 0 0 0 0 0 3 1 2 1 0 7 3
0 0 0 0 0 0 0 0 0 0 0 0 0 0 0 0 0 0 0 0 0 0 0 0 0 0 0 0 0 0 0 0 0 0 0 0 0 0 0 0 0 1 3
0 0 0 0 0 0 0 0 0 0 0 0 0 0 0 0 0 0 0 0 0 0 0 0 0 0 0 0 0 0 0 0 0 0 0 0 0 0 0 0 0 0 0
0 0 0 0 0 0 0 0 0 0 0 0 0 0 0 0 0 0 0 0 0 0 0 0 0 0 0 0 0 0 0 0 0 0 0 0 0 0 0 0 0 0 0
CIN
0 0 0 0 0 0 0 0 0 0 0 0 0 0 0 -48 0 0 0 0 0 -1 -10 -27 -19 -45 -73 -23 -42 -19 -2 -34 0 0 -15 0 0 0 0 0 0 0 -3
0 0 0 0 0 0 0 0 0 0 0 0 0 0 -69 -211 -8 0 0 0 -4 -3 -19 -20 -29 -48 -77 -21 -33 -18 -45 -23 -26 -3 -3 -7 -36 -9 -1 -3 -25 -37 -45
0 0 0 0 0 0 0 0 0 0 0 0 0 0 0 -130 -69 -1 0 0 0 0 -14 -27 -11 -91 -90 -61 -54 -45 -78 -70 -51 -16 -6 -4 -17 -50 -16 -3 -11 -29 -58
0 0 0 0 0 0 0 0 0 0 0 0 0 0 0 0 -112 0 0 0 0 -1 -3 -8 -3 -91 -90 -61 -64 -49 -31 -15 -82 -33 -13 0 -2 -2 -3 -5 -8 -25 -37
0 0 0 0 0 0 0 0 0 0 0 0 0 0 0 0 -82 -16 0 0 0 -6 -2 -2 -27 -109 -50 -64 -46 -4 0 0 -19 -72 -69 0 0 0 -1 -1 -47 -23 -28
0 0 0 0 0 0 0 0 0 0 0 0 0 0 0 0 -56 -6 -1 0 0 -10 -7 0 -11 -71 -59 -76 -78 -53 0 0 -16 -22 -19 -7 -1 0 0 0 -12 -42 -34
0 0 0 0 0 0 0 0 0 0 0 0 0 0 0 0 0 -95 -3 -1 0 -9 -32 -8 -4 -42 -87 -106 -397 -308 0 0 -3 -34 -19 -33 0 0 -1 -1 0 -21 -25
0 0 0 0 0 0 0 0 0 0 0 0 0 -89 -139 -19 0 -117 -9 0 0 -1 -36 -5 0 -34 -46 -108 -52 -58 0 -2 -1 -15 -10 -7 0 0 -1 -1 0 0 0
0 0 0 0 0 0 0 0 0 0 0 0 0 -51 -67 -53 -80 -5 0 0 0 0 -32 -5 -4 0 0 -28 -26 -25 0 0 0 -2 -5 -46 -21 0 -2 -3 -3 -1 -1
0 0 0 0 0 0 0 0 0 0 0 0 -24 -11 -16 -4 0 0 0 0 0 0 -1 -1 -1 -2 -12 -37 -22 -11 0 0 0 0 -3 -9 0 0 -2 -1 -3 0 0
0 0 0 0 0 0 0 0 0 0 0 0 -66 -9 -10 -34 -35 -7 -1 0 0 0 -1 -3 -6 -24 -53 -113 -93 -59 -38 -2 0 -15 -57 -36 -2 0 0 -4 0 -4 0
0 0 0 0 0 0 0 0 0 0 0 0 -41 -43 -47 -21 -25 -37 -1 0 0 -8 -3 -25 -2 -9 -27 -14 -90 -38 -73 -2 0 -1 -26 -27 0 0 -4 0 -6 -19 0
0 0 0 0 0 0 0 0 0 0 0 0 -4 -8 -11 -34 -12 -8 -5 -1 -1 0 -3 -6 0 0 -18 -64 -127 -190 0 -3 -1 0 -3 -38 0 -13 -15 -13 -40 -5 -6
0 0 0 0 0 0 0 0 0 0 0 0 0 -12 0 0 0 0 0 -1 0 0 0 -2 0 -1 -16 -12 -4 -12 0 0 0 0 -1 -1 -18 -41 -25 -67 -33 -40 -8
0 0 0 0 0 0 0 0 0 0 0 0 0 0 0 0 0 0 -2 0 0 -5 0 0 0 -10 -7 -38 -89 -88 -7 -20 -5 -5 -27 -32 -35 -46 -54 -16 -29 -1 -11
0 0 0 0 0 0 0 0 0 0 0 0 0 0 0 0 -3 0 0 0 0 0 -2 0 0 0 -29 -86 -122 -97 -2 -9 -70 -68 -60 -8 -4 -6 -7 0 -3 -83 -3
0 0 0 0 0 0 0 0 0 0 0 0 0 0 0 0 0 0 0 0 0 0 0 0 0 -10 -31 -15 -28 -38 -12 -24 -34 -53 -20 -44 -24 -1 -1 0 -20 0 0
0 0 0 0 0 0 0 0 0 0 0 0 0 0 0 0 0 0 0 0 0 0 0 0 -2 0 -1 0 -9 -11 -23 -22 -30 -42 -68 -1 -1 -13 -1 0 0 0 0
0 0 0 0 0 0 0 0 0 0 0 0 0 0 0 0 0 0 0 0 0 0 0 0 0 -1 -2 0 -24 -1 -6 -10 0 -63 -14 -11 -42 0 0 -1 0 -1 0
0 0 0 0 0 0 0 0 0 0 0 0 0 0 0 0 0 0 0 0 0 0 0 0 0 0 0 0 0 -2 0 -8 0 -1 -13 -3 -3 -57 -37 0 0 0 0
0 0 0 0 0 0 0 0 0 0 0 0 0 0 0 0 0 0 0 0 0 0 0 0 0 0 -1 0 0 0 -2 0 0 -3 -3 -7 -9 0 -13 -40 0 -2 0
0 0 0 0 0 0 0 0 0 0 0 0 0 0 0 0 0 0 0 0 0 0 0 0 0 0 0 0 0 0 0 0 0 0 0 0 0 0 -1 -2 -14 0 0
0 0 0 0 0 0 0 0 0 0 0 0 0 0 0 0 0 0 0 0 0 0 0 0 0 0 0 0 0 0 0 0 0 0 0 0 0 0 0 0 0 0 0
0 0 0 0 0 0 0 0 0 0 0 0 0 0 0 0 0 0 0 0 0 0 0 0 0 0 0 0 0 0 0 0 0 0 0 0 0 0 0 0 0 0 0
0 0 0 0 0 0 0 0 0 0 0 0 0 0 0 0 0 0 0 0 0 0 0 0 0 0 0 0 0 0 0 0 0 0 0 0 0 0 0 0 0 0 0
0 0 0 0 0 0 0 0 0 0 0 0 0 0 0 0 0 0 0 0 0 0 0 0 0 0 0 0 0 0 0 0 0 0 0 0 0 0 0 0 0 0 0
Wind_Speed
nan nan nan nan nan nan nan nan nan nan nan nan nan nan nan 37 39 42 39 46 49 51 53 52 46 44 42 42 49 51 48 49 46 44 36 31 29 31 30 28 28 nan nan
nan nan nan nan nan nan nan nan nan nan nan nan nan nan nan nan 43 47 49 49 54 61 59 51 42 48 49 46 45 51 51 50 47 44 42 35 35 31 28 29 nan nan nan
nan nan nan nan nan nan nan nan nan nan nan nan nan nan nan nan 48 51 57 57 55 55 48 63 41 49 47 41 45 49 52 50 47 40 41 36 34 nan 31 27 28 nan nan
nan nan nan nan nan nan nan nan nan nan nan nan nan nan nan nan nan 55 61 52 44 49 52 50 48 49 49 45 44 48 47 46 45 40 31 29 38 32 nan nan 25 27 nan
nan nan nan nan nan nan nan nan nan nan nan nan nan nan nan nan 41 39 41 41 42 43 40 38 45 50 50 52 51 53 42 43 40 38 37 30 34 29 27 nan nan nan nan
nan nan nan nan nan nan nan nan nan nan nan nan nan nan nan nan nan 35 36 40 42 39 35 39 45 46 57 53 54 60 37 39 38 38 34 36 39 31 26 24 29 nan nan
nan nan nan nan nan nan nan nan nan nan nan nan nan nan nan nan nan 25 33 37 37 37 34 37 41 49 49 45 38 54 30 30 36 36 36 37 32 31 24 24 28 nan nan
nan nan nan nan nan nan nan nan nan nan nan nan nan nan nan nan nan 17 26 31 32 33 31 31 35 37 40 31 37 40 31 36 32 36 37 37 32 31 25 24 25 nan nan
nan nan nan nan nan nan nan nan nan nan nan nan nan 27 25 22 16 12 25 29 27 30 31 32 34 38 38 40 37 40 36 26 30 33 37 35 34 30 28 25 nan nan nan
nan nan nan nan nan nan nan nan nan nan nan nan nan 28 27 25 31 19 26 26 25 21 24 30 30 36 33 38 38 35 27 30 29 38 36 29 32 29 26 25 nan nan nan
nan nan nan nan nan nan nan nan nan nan nan nan nan 30 30 33 33 28 19 20 20 20 25 32 33 38 33 35 33 29 34 32 37 34 28 27 26 23 24 nan 24 nan nan
nan nan nan nan nan nan nan nan nan nan nan nan nan nan 31 32 35 34 36 27 23 24 30 27 29 32 30 32 25 nan 40 29 25 25 27 24 24 19 20 25 nan nan 27
nan nan nan nan nan nan nan nan nan nan nan nan nan nan nan nan 37 37 39 30 23 33 31 29 24 26 28 37 33 nan nan 12 10 21 20 23 23 26 27 28 nan 29 nan
nan nan nan nan nan nan nan nan nan nan nan nan nan nan nan nan 31 36 38 41 35 33 32 28 27 26 23 26 32 37 26 23 24 24 24 22 24 nan 26 nan nan nan nan
nan nan nan nan nan nan nan nan nan nan nan nan nan nan nan nan nan nan nan 42 35 47 41 33 36 36 38 29 32 36 35 nan 27 nan nan nan 37 nan nan nan nan nan nan
nan nan nan nan nan nan nan nan nan nan nan nan nan nan nan nan nan nan nan nan nan nan nan 48 45 42 nan nan nan nan 43 42 nan nan nan 39 nan nan nan nan nan nan nan
nan nan nan nan nan nan nan nan nan nan nan nan nan nan nan nan nan nan nan nan nan nan nan nan nan nan nan nan nan nan nan nan nan nan nan nan nan nan nan nan nan nan nan
nan nan nan nan nan nan nan nan nan nan nan nan nan nan nan nan nan nan nan nan nan nan nan nan nan nan nan nan nan nan nan nan nan nan nan nan nan nan nan nan nan nan nan
nan nan nan nan nan nan nan nan nan nan nan nan nan nan nan nan nan nan nan nan nan nan nan nan nan nan nan nan nan nan nan nan nan nan nan nan nan nan nan nan nan nan nan
nan nan nan nan nan nan nan nan nan nan nan nan nan nan nan nan nan nan nan nan nan nan nan nan nan nan nan nan nan nan nan nan nan nan nan nan nan nan nan nan nan nan nan
nan nan nan nan nan nan nan nan nan nan nan nan nan nan nan nan nan nan nan nan nan nan nan nan nan nan nan nan nan nan nan nan nan nan nan nan nan nan nan nan nan nan nan
nan nan nan nan nan nan nan nan nan nan nan nan nan nan nan nan nan nan nan nan nan nan nan nan nan nan nan nan nan nan nan nan nan nan nan nan nan nan nan nan nan nan nan
nan nan nan nan nan nan nan nan nan nan nan nan nan nan nan nan nan nan nan nan nan nan nan nan nan nan nan nan nan nan nan nan nan nan nan nan nan nan nan nan nan nan nan
nan nan nan nan nan nan nan nan nan nan nan nan nan nan nan nan nan nan nan nan nan nan nan nan nan nan nan nan nan nan nan nan nan nan nan nan nan nan nan nan nan nan nan
nan nan nan nan nan nan nan nan nan nan nan nan nan nan nan nan nan nan nan nan nan nan nan nan nan nan nan nan nan nan nan nan nan nan nan nan nan nan nan nan nan nan nan
nan nan nan nan nan nan nan nan nan nan nan nan nan nan nan nan nan nan nan nan nan nan nan nan nan nan nan nan nan nan nan nan nan nan nan nan nan nan nan nan nan nan nan
Wind_Direction
nan nan nan nan nan nan nan nan nan nan nan nan nan nan nan 271 271 273 271 276 275 278 278 277 276 268 276 280 277 275 276 273 275 266 262 256 256 273 279 278 275 nan nan
nan nan nan nan nan nan nan nan nan nan nan nan nan nan nan nan 266 276 272 269 267 267 267 271 260 277 275 281 275 274 270 264 267 261 258 255 258 263 273 270 nan nan nan
nan nan nan nan nan nan nan nan nan nan nan nan nan nan nan nan 270 269 272 266 269 269 255 270 261 267 267 276 272 274 272 269 263 261 258 256 256 nan 269 280 274 nan nan
nan nan nan nan nan nan nan nan nan nan nan nan nan nan nan nan nan 272 269 262 257 263 262 268 261 261 262 269 270 268 264 266 265 261 257 253 253 265 nan nan 273 268 nan
nan nan nan nan nan nan nan nan nan nan nan nan nan nan nan nan 270 265 265 263 260 258 261 259 255 253 258 260 264 255 255 258 258 261 256 259 260 266 265 nan nan nan nan
nan nan nan nan nan nan nan nan nan nan nan nan nan nan nan nan nan 267 259 259 256 257 260 249 245 249 255 264 268 270 246 246 252 256 258 262 270 268 267 259 264 nan nan
nan nan nan nan nan nan nan nan nan nan nan nan nan nan nan nan nan 264 246 249 252 254 257 255 249 247 253 261 270 275 217 250 243 259 259 259 269 263 260 251 257 nan nan
nan nan nan nan nan nan nan nan nan nan nan nan nan nan nan nan nan 247 234 232 246 250 248 251 248 249 246 249 254 261 254 254 249 257 254 257 261 258 259 252 256 nan nan
nan nan nan nan nan nan nan nan nan nan nan nan nan 256 257 259 258 222 237 233 237 243 242 244 246 246 244 247 251 242 243 243 253 253 259 255 255 252 252 253 nan nan nan
nan nan nan nan nan nan nan nan nan nan nan nan nan 260 241 234 216 227 232 236 234 243 252 260 251 255 247 259 259 248 242 247 242 238 248 254 252 250 247 253 nan nan nan
nan nan nan nan nan nan nan nan nan nan nan nan nan 239 229 223 220 222 214 217 219 224 244 266 252 251 259 254 255 265 232 229 223 230 245 246 249 245 248 nan 262 nan nan
nan nan nan nan nan nan nan nan nan nan nan nan nan nan 231 228 220 214 209 226 219 227 255 251 254 258 250 269 252 nan 199 196 210 230 236 238 232 242 253 255 nan nan 271
nan nan nan nan nan nan nan nan nan nan nan nan nan nan nan nan 233 221 209 216 238 238 234 235 253 252 262 259 266 nan nan 228 230 237 239 244 248 248 252 261 nan 266 nan
nan nan nan nan nan nan nan nan nan nan nan nan nan nan nan nan 226 224 222 229 220 227 233 237 248 249 260 260 274 277 232 249 239 241 242 246 249 nan 259 nan nan nan nan
nan nan nan nan nan nan nan nan nan nan nan nan nan nan nan nan nan nan nan 223 221 225 226 233 234 230 229 243 261 249 247 nan 244 nan nan nan 238 nan nan nan nan nan nan
nan nan nan nan nan nan nan nan nan nan nan nan nan nan nan nan nan nan nan nan nan nan nan 225 227 230 nan nan nan nan 240 234 nan nan nan 239 nan nan nan nan nan nan nan
nan nan nan nan nan nan nan nan nan nan nan nan nan nan nan nan nan nan nan nan nan nan nan nan nan nan nan nan nan nan nan nan nan nan nan nan nan nan nan nan nan nan nan
nan nan nan nan nan nan nan nan nan nan nan nan nan nan nan nan nan nan nan nan nan nan nan nan nan nan nan nan nan nan nan nan nan nan nan nan nan nan nan nan nan nan nan
nan nan nan nan nan nan nan nan nan nan nan nan nan nan nan nan nan nan nan nan nan nan nan nan nan nan nan nan nan nan nan nan nan nan nan nan nan nan nan nan nan nan nan
nan nan nan nan nan nan nan nan nan nan nan nan nan nan nan nan nan nan nan nan nan nan nan nan nan nan nan nan nan nan nan nan nan nan nan nan nan nan nan nan nan nan nan
nan nan nan nan nan nan nan nan nan nan nan nan nan nan nan nan nan nan nan nan nan nan nan nan nan nan nan nan nan nan nan nan nan nan nan nan nan nan nan nan nan nan nan
nan nan nan nan nan nan nan nan nan nan nan nan nan nan nan nan nan nan nan nan nan nan nan nan nan nan nan nan nan nan nan nan nan nan nan nan nan nan nan nan nan nan nan
nan nan nan nan nan nan nan nan nan nan nan nan nan nan nan nan nan nan nan nan nan nan nan nan nan nan nan nan nan nan nan nan nan nan nan nan nan nan nan nan nan nan nan
nan nan nan nan nan nan nan nan nan nan nan nan nan nan nan nan nan nan nan nan nan nan nan nan nan nan nan nan nan nan nan nan nan nan nan nan nan nan nan nan nan nan nan
nan nan nan nan nan nan nan nan nan nan nan nan nan nan nan nan nan nan nan nan nan nan nan nan nan nan nan nan nan nan nan nan nan nan nan nan nan nan nan nan nan nan nan
nan nan nan nan nan nan nan nan nan nan nan nan nan nan nan nan nan nan nan nan nan nan nan nan nan nan nan nan nan nan nan nan nan nan nan nan nan nan nan nan nan nan nan